This demonstration page uses our WeatherBlox Daily Observations layout. Learn more.

38.88101, -77.10428

Hourly Observations for March 13, 2018

Temp ( °F °C ) Dew Point ( °F °C ) Humidity (%) Winds ( mph kmh ) Pressure ( in mb ) Visibility ( mi km ) Precip ( " mm )
12:52 am 00:52 Cloudy 36 2.2 30 -1.1 79 79 NNW 16 26 29.8 1009 10 16.0934 0 0
1:52 am 01:52 Partly Cloudy 34 1.1 30 -1.1 85 85 NNW 14 22 29.8 1009 10 16.0934 0 0
2:52 am 02:52 Partly Cloudy 34 1.1 29 -1.7 82 82 NW 14 22 29.79 1009 10 16.0934 0 0
3:52 am 03:52 Partly Cloudy 34 1.1 28 -2.2 79 79 NW 13 20 29.78 1009 10 16.0934 0 0
4:52 am 04:52 Mostly Clear 34 1.1 25 -3.9 70 70 NW 18 30 29.78 1009 10 16.0934 0 0
5:52 am 05:52 Partly Cloudy 34 1.1 22 -5.6 61 61 NW 18 30 29.79 1009 10 16.0934 0 0
6:52 am 06:52 Mostly Clear 33 0.6 20 -6.7 58 58 NW 14 22 29.81 1010 10 16.0934 0 0
7:52 am 07:52 Sunny 33 0.6 19 -7.2 56 56 NW 22 35 29.83 1010 10 16.0934 0 0
8:52 am 08:52 Mostly Sunny 35 1.7 19 -7.2 52 52 NW 26 43 29.85 1011 10 16.0934 0 0
9:52 am 09:52 Mostly Sunny 38 3.3 19 -7.2 46 46 NW 20 31 29.86 1011 10 16.0934 0 0
10:52 am 10:52 Partly Cloudy 39 3.9 18 -7.8 43 43 NW 23 37 29.87 1011 10 16.0934 0 0
11:52 am 11:52 Partly Cloudy 42 5.6 20 -6.7 41 41 WNW 15 24 29.87 1012 10 16.0934 0 0
12:52 pm 12:52 Partly Cloudy 45 7.2 19 -7.2 35 35 WNW 16 26 29.86 1011 10 16.0934 0 0
1:52 pm 13:52 Partly Cloudy 45 7.2 17 -8.3 33 33 WNW 18 30 29.85 1011 10 16.0934 0 0
2:52 pm 14:52 Partly Cloudy 45 7.2 16 -8.9 31 31 NNW 20 31 29.83 1010 10 16.0934 0 0
3:52 pm 15:52 Cloudy 46 7.8 15 -9.4 29 29 WNW 14 22 29.83 1010 10 16.0934 0 0
4:52 pm 16:52 Mostly Cloudy 45 7.2 14 -10 29 29 NW 20 31 29.84 1010 10 16.0934 0 0
5:52 pm 17:52 Partly Cloudy 45 7.2 13 -10.6 27 27 WNW 17 28 29.84 1011 10 16.0934 0 0
6:52 pm 18:52 Mostly Cloudy 43 6.1 15 -9.4 32 32 NNW 14 22 29.85 1011 10 16.0934 0 0
7:52 pm 19:52 Mostly Cloudy 42 5.6 14 -10 32 32 NW 8 13 29.87 1011 10 16.0934 0 0
8:52 pm 20:52 Partly Cloudy 41 5 15 -9.4 35 35 WNW 7 11 29.88 1012 10 16.0934 0 0
9:52 pm 21:52 Mostly Cloudy 40 4.4 17 -8.3 40 40 W 15 24 29.89 1012 10 16.0934 0 0
10:52 pm 22:52 Partly Cloudy 38 3.3 19 -7.2 46 46 W 12 19 29.88 1012 10 16.0934 0 0
11:52 pm 23:52 Partly Cloudy 36 2.2 21 -6.1 55 55 W 10 17 29.89 1012 10 16.0934 0 0

Powered by AerisWeather